Temp
20 19 19 20 24 26 28 28 29 28 28 27 27 28 28 28 28 26 22 19 20 19 18 19 19 18 18 18 18 18 18 18 17 17 18 17 17 17 17 17 18 18 17 16 16 16 16 17 17
19 19 20 23 25 28 29 29 28 28 28 27 27 27 28 28 26 22 21 19 19 19 18 18 19 18 18 18 18 18 18 17 17 17 18 17 17 17 17 17 18 18 17 16 16 16 16 17 17
19 19 23 26 27 28 28 28 28 27 27 27 28 27 28 27 25 24 21 22 19 19 19 18 18 18 18 18 18 18 17 17 17 17 17 17 17 17 17 17 17 18 18 17 17 17 17 17 17
20 22 23 25 27 28 28 28 27 28 27 27 27 29 27 24 25 23 20 20 20 19 19 18 18 18 18 18 18 17 17 17 16 17 17 17 17 16 16 17 17 17 17 17 16 16 16 17 16
20 23 25 26 27 27 28 26 26 27 27 28 27 29 27 23 22 22 21 20 21 20 19 18 17 17 18 18 18 17 17 17 16 16 17 17 17 16 16 16 16 17 17 17 17 16 16 16 16
23 24 26 27 27 27 27 26 26 27 27 27 27 28 26 23 22 21 21 21 21 20 19 17 19 18 18 18 17 17 17 16 16 17 17 17 16 17 16 16 16 16 17 16 16 16 16 16 16
23 24 26 26 26 26 27 25 27 26 26 27 25 27 26 24 21 21 21 21 21 20 19 18 18 19 18 16 17 17 17 17 17 17 17 17 16 16 17 16 16 16 16 16 16 16 16 16 16
22 24 25 26 26 26 25 25 24 24 26 24 24 27 27 23 22 21 21 21 20 20 19 18 17 16 17 18 18 18 18 18 17 17 17 17 17 16 16 16 16 16 16 16 16 16 15 15 16
20 23 25 26 25 25 24 25 24 23 24 24 24 25 25 23 21 21 21 21 20 19 19 18 18 17 16 16 16 18 18 18 17 17 17 17 17 16 16 16 16 16 15 16 16 16 16 15 15
22 23 25 24 24 24 24 23 24 24 25 25 25 25 24 23 23 23 22 21 20 19 18 18 18 18 17 17 17 16 15 17 17 16 15 17 16 17 16 15 16 16 15 15 15 15 15 15 14
23 23 23 24 22 22 23 23 24 23 23 24 24 23 23 23 23 23 23 23 22 20 19 18 18 17 17 17 17 16 16 15 15 16 16 16 17 17 16 16 16 16 15 15 15 15 15 14 15
21 23 22 22 21 21 22 22 22 23 23 23 22 21 21 22 23 23 24 24 23 22 20 18 18 17 17 17 17 16 15 16 16 16 16 15 16 16 16 16 15 14 14 14 14 14 14 15 15
22 23 21 21 20 20 21 21 22 22 22 22 21 21 21 22 21 22 22 22 23 23 21 19 17 17 17 17 17 16 17 16 16 16 16 15 15 15 16 15 15 15 15 15 15 15 14 15 14
22 21 21 21 21 21 21 22 21 22 21 21 22 22 22 21 21 21 21 21 22 22 22 20 18 17 17 16 18 16 17 17 17 16 15 15 15 15 15 15 15 15 15 15 15 14 14 14 14
20 20 23 23 23 22 20 21 22 22 21 22 22 23 23 21 20 21 20 20 21 22 22 21 19 18 17 17 16 17 16 17 17 17 16 16 16 14 15 15 15 14 15 15 15 14 13 14 14
21 22 21 22 21 21 20 21 25 22 21 22 22 22 22 21 20 19 17 17 18 19 20 21 21 20 18 17 17 16 17 17 17 17 17 16 15 14 15 15 15 15 15 14 14 14 14 14 15
23 22 23 24 23 21 21 21 23 22 22 22 21 21 20 19 18 17 16 16 16 16 17 18 19 20 20 18 17 17 17 17 17 17 17 16 15 15 15 15 15 15 14 14 14 14 14 15 14
23 22 23 23 24 22 21 21 22 21 22 21 21 20 19 18 17 16 15 14 14 14 15 16 16 17 19 19 17 17 17 17 17 17 17 16 15 15 14 14 15 14 14 14 13 13 13 14 14
21 20 20 22 22 21 21 20 21 22 21 21 21 19 18 17 16 15 14 14 13 13 13 14 14 16 18 18 17 17 16 17 17 17 16 15 15 14 14 15 15 14 14 15 15 14 13 13 13
19 19 20 21 22 20 20 20 21 22 21 20 18 17 16 15 15 14 13 13 12 12 11 12 13 14 17 17 17 17 17 17 17 16 16 15 15 14 14 14 14 14 14 15 14 14 13 12 12
19 19 19 19 20 20 20 20 21 20 17 16 15 15 14 13 13 13 12 12 12 11 10 10 11 12 13 16 17 17 16 17 17 16 15 15 14 14 14 14 13 13 13 14 14 13 13 12 13
18 20 20 19 18 17 21 18 20 20 18 17 15 14 13 13 13 12 12 11 11 10 10 10 11 12 13 16 16 16 16 16 16 16 15 16 14 14 14 14 14 13 13 13 14 12 12 12 11
18 19 17 18 17 17 18 18 20 21 19 16 15 13 13 12 12 12 11 11 10 9 9 10 11 12 13 14 15 15 15 16 15 15 15 15 15 14 15 13 13 13 13 13 12 12 12 12 11
18 16 17 17 17 16 17 18 18 20 19 15 14 12 11 11 11 11 11 10 10 9 8 9 10 12 12 13 15 15 15 16 15 15 15 15 15 14 14 13 13 13 12 12 12 11 11 11 11
16 15 14 14 16 16 19 18 19 14 14 14 13 11 11 10 10 10 10 10 10 10 8 8 9 11 12 13 13 14 14 14 15 15 16 15 16 15 15 13 13 12 12 11 11 11 11 11 11
15 16 14 12 14 15 18 14 16 12 11 11 11 10 10 10 9 9 9 9 9 10 9 8 8 10 11 12 12 13 14 14 14 14 15 14 13 13 13 13 12 12 11 11 11 11 11 11 11
14 14 15 13 14 13 14 16 12 12 11 11 11 11 10 9 9 9 8 9 9 9 9 8 9 9 10 11 11 12 13 13 13 14 15 14 13 12 12 12 12 12 11 11 11 11 11 11 11
11 14 12 12 8 10 13 15 11 9 10 11 11 10 10 9 8 8 8 8 8 9 9 8 9 10 12 12 10 11 12 12 12 14 15 15 15 10 12 11 11 11 11 11 11 11 10 10 10
12 11 11 11 11 8 9 12 10 9 10 10 10 10 9 8 8 7 7 7 7 8 9 8 9 9 12 11 11 14 11 11 12 13 14 14 14 13 11 11 12 11 11 10 10 10 10 10 10
10 9 9 7 7 7 7 10 11 11 10 9 9 9 8 7 7 7 7 7 7 8 9 9 8 9 11 10 10 11 11 11 11 11 13 13 13 13 11 11 11 11 10 10 10 10 10 9 9
Height
1496 1498 1499 1498 1501 1487 1479 1480 1472 1475 1474 1478 1481 1479 1478 1477 1477 1487 1485 1485 1488 1490 1491 1491 1495 1497 1499 1501 1503 1504 1505 1507 1507 1508 1508 1510 1510 1510 1510 1511 1512 1511 1510 1510 1510 1510 1508 1508 1506
1498 1500 1500 1497 1495 1484 1476 1474 1479 1476 1479 1482 1482 1481 1479 1479 1483 1485 1486 1485 1488 1492 1493 1493 1494 1497 1499 1501 1504 1504 1505 1507 1507 1508 1509 1510 1511 1511 1511 1512 1512 1512 1511 1511 1511 1511 1510 1509 1508
1499 1500 1500 1491 1483 1483 1477 1476 1476 1482 1483 1484 1482 1483 1481 1482 1486 1487 1487 1486 1488 1492 1495 1496 1495 1498 1500 1502 1504 1505 1506 1508 1509 1509 1510 1511 1511 1512 1512 1513 1513 1512 1512 1512 1511 1511 1511 1509 1509
1502 1502 1499 1494 1483 1479 1478 1479 1484 1483 1483 1485 1484 1480 1485 1489 1489 1490 1489 1488 1491 1493 1496 1494 1496 1498 1500 1502 1504 1506 1507 1509 1509 1510 1511 1511 1512 1513 1513 1513 1513 1513 1513 1512 1513 1512 1512 1511 1510
1502 1499 1492 1489 1483 1482 1481 1485 1487 1485 1484 1484 1486 1479 1483 1489 1491 1491 1489 1491 1494 1496 1498 1495 1497 1498 1500 1501 1504 1506 1507 1509 1510 1511 1511 1512 1513 1514 1514 1514 1514 1514 1514 1513 1513 1513 1513 1513 1512
1500 1498 1489 1484 1480 1482 1482 1486 1485 1485 1483 1483 1484 1482 1484 1489 1492 1492 1493 1494 1495 1496 1497 1495 1495 1498 1500 1502 1504 1504 1506 1508 1509 1510 1512 1512 1512 1513 1513 1514 1515 1515 1514 1514 1515 1514 1513 1514 1514
1500 1495 1488 1487 1485 1483 1482 1487 1483 1486 1484 1484 1488 1483 1483 1489 1491 1491 1492 1494 1496 1497 1497 1498 1495 1497 1499 1501 1502 1503 1505 1507 1508 1509 1510 1512 1512 1513 1513 1514 1514 1515 1515 1515 1515 1515 1515 1514 1514
1502 1497 1489 1484 1483 1485 1487 1489 1491 1489 1485 1490 1489 1482 1483 1489 1491 1491 1492 1492 1493 1494 1496 1499 1498 1497 1498 1499 1500 1502 1503 1505 1506 1508 1509 1510 1511 1512 1513 1513 1514 1514 1515 1515 1514 1516 1516 1514 1515
1503 1498 1490 1486 1490 1485 1491 1489 1489 1492 1492 1491 1490 1490 1490 1492 1492 1492 1492 1492 1493 1493 1493 1494 1496 1499 1501 1502 1501 1502 1503 1504 1505 1506 1507 1508 1510 1512 1512 1513 1513 1514 1514 1514 1514 1515 1515 1515 1516
1501 1496 1487 1491 1491 1490 1491 1492 1491 1491 1487 1487 1488 1487 1488 1490 1491 1491 1492 1492 1493 1493 1493 1494 1494 1495 1496 1499 1502 1502 1502 1503 1504 1505 1507 1507 1510 1512 1513 1512 1511 1513 1513 1513 1514 1515 1515 1515 1516
1497 1495 1492 1492 1494 1494 1492 1491 1489 1489 1488 1486 1487 1487 1488 1487 1487 1486 1487 1487 1489 1491 1493 1492 1493 1495 1496 1497 1498 1498 1500 1501 1504 1505 1507 1509 1510 1508 1510 1510 1510 1510 1510 1512 1513 1513 1514 1516 1518
1500 1494 1496 1496 1497 1497 1495 1492 1490 1488 1487 1487 1487 1488 1488 1486 1484 1484 1483 1483 1485 1485 1488 1490 1490 1490 1492 1495 1497 1497 1497 1499 1501 1502 1505 1506 1507 1509 1508 1507 1509 1509 1508 1509 1511 1512 1514 1515 1516
1495 1492 1494 1494 1495 1494 1492 1489 1488 1486 1485 1485 1486 1486 1484 1483 1483 1481 1481 1481 1481 1482 1483 1487 1489 1489 1490 1492 1493 1495 1496 1497 1499 1498 1500 1502 1505 1506 1507 1506 1507 1506 1506 1506 1506 1509 1511 1513 1514
1493 1494 1492 1491 1491 1491 1489 1487 1486 1480 1483 1483 1482 1481 1480 1481 1481 1480 1479 1479 1478 1478 1480 1480 1483 1485 1487 1487 1489 1490 1492 1495 1496 1496 1497 1499 1501 1503 1504 1505 1505 1503 1503 1505 1506 1507 1504 1510 1512
1495 1493 1486 1482 1481 1484 1489 1484 1479 1480 1481 1481 1479 1477 1476 1478 1479 1478 1476 1477 1477 1476 1476 1477 1478 1474 1481 1483 1485 1485 1486 1490 1493 1494 1495 1497 1498 1499 1501 1502 1500 1501 1501 1502 1504 1504 1507 1508 1511
1491 1486 1486 1478 1482 1483 1488 1478 1467 1475 1479 1476 1476 1475 1474 1476 1478 1477 1477 1474 1473 1475 1475 1473 1474 1475 1477 1478 1479 1480 1484 1486 1489 1491 1493 1493 1495 1495 1497 1497 1497 1498 1500 1492 1498 1502 1505 1508 1512
1475 1481 1475 1471 1474 1481 1482 1474 1470 1473 1474 1472 1472 1472 1474 1476 1477 1478 1475 1472 1471 1469 1469 1471 1469 1470 1472 1472 1474 1476 1479 1482 1483 1487 1489 1490 1491 1492 1491 1493 1494 1495 1497 1497 1499 1502 1507 1506 1509
1477 1476 1469 1469 1469 1472 1474 1469 1469 1469 1468 1467 1467 1469 1472 1476 1477 1475 1473 1470 1467 1466 1464 1464 1463 1464 1464 1466 1467 1470 1472 1474 1479 1481 1484 1486 1487 1489 1488 1490 1491 1494 1495 1499 1502 1503 1503 1505 1507
1482 1483 1479 1470 1468 1469 1470 1466 1464 1463 1463 1464 1463 1469 1473 1474 1474 1475 1472 1468 1466 1462 1460 1458 1457 1456 1461 1461 1461 1461 1464 1468 1473 1477 1480 1482 1484 1486 1486 1489 1492 1494 1493 1496 1498 1498 1500 1503 1505
1486 1483 1477 1467 1465 1471 1469 1464 1460 1458 1456 1461 1468 1473 1475 1473 1473 1471 1471 1468 1464 1461 1456 1454 1453 1451 1450 1455 1457 1457 1457 1462 1465 1472 1473 1476 1479 1480 1483 1486 1489 1492 1492 1494 1496 1497 1500 1502 1504
1482 1481 1475 1474 1468 1464 1462 1454 1450 1453 1462 1467 1471 1475 1475 1473 1473 1471 1469 1467 1464 1460 1454 1450 1449 1447 1445 1445 1451 1453 1454 1457 1457 1460 1466 1469 1474 1477 1480 1483 1486 1489 1491 1493 1495 1496 1498 1500 1501
1480 1472 1469 1470 1471 1470 1456 1455 1449 1449 1456 1463 1469 1472 1472 1472 1472 1468 1467 1466 1463 1459 1454 1450 1444 1440 1440 1440 1443 1444 1446 1449 1451 1456 1459 1463 1469 1473 1476 1480 1483 1487 1488 1491 1494 1496 1499 1500 1500
1474 1473 1476 1472 1469 1465 1456 1456 1441 1436 1441 1455 1467 1472 1472 1472 1470 1468 1466 1464 1462 1458 1454 1451 1445 1440 1433 1436 1438 1441 1447 1445 1447 1451 1456 1457 1463 1469 1473 1477 1481 1484 1486 1490 1493 1495 1498 1499 1500
1476 1477 1474 1469 1465 1464 1452 1449 1439 1433 1435 1452 1464 1470 1473 1472 1471 1469 1466 1462 1460 1457 1453 1452 1446 1440 1435 1432 1435 1437 1439 1443 1444 1448 1450 1451 1457 1463 1469 1474 1478 1482 1486 1489 1491 1493 1495 1497 1499
1477 1482 1480 1475 1461 1449 1436 1438 1428 1447 1454 1460 1467 1471 1472 1472 1471 1470 1466 1461 1459 1456 1453 1451 1448 1441 1436 1433 1432 1434 1435 1437 1439 1444 1447 1449 1452 1458 1464 1470 1474 1479 1483 1487 1489 1491 1493 1496 1497
1475 1474 1476 1479 1464 1449 1435 1455 1438 1456 1461 1466 1470 1472 1471 1472 1471 1471 1467 1462 1460 1457 1454 1449 1446 1443 1437 1434 1431 1430 1432 1433 1436 1439 1442 1446 1453 1456 1461 1467 1473 1477 1481 1484 1487 1490 1492 1493 1495
1475 1472 1468 1472 1462 1458 1450 1440 1455 1459 1463 1466 1467 1470 1471 1472 1470 1468 1464 1462 1459 1456 1453 1447 1443 1442 1439 1433 1429 1427 1429 1431 1433 1435 1438 1441 1442 1449 1457 1466 1470 1476 1480 1483 1486 1488 1490 1492 1494
1486 1476 1477 1470 1483 1467 1444 1433 1449 1463 1463 1466 1467 1470 1470 1470 1469 1465 1462 1459 1456 1454 1451 1446 1441 1439 1434 1429 1426 1424 1426 1428 1431 1434 1435 1440 1444 1436 1458 1466 1469 1472 1479 1482 1484 1486 1489 1492 1493
1478 1478 1477 1475 1472 1473 1461 1445 1464 1468 1468 1469 1470 1470 1469 1468 1467 1463 1460 1456 1454 1451 1447 1444 1439 1437 1431 1432 1424 1420 1426 1427 1429 1430 1432 1438 1445 1453 1460 1464 1467 1472 1479 1482 1483 1486 1489 1491 1492
1484 1482 1484 1491 1483 1478 1478 1461 1464 1467 1469 1470 1469 1468 1466 1466 1464 1461 1457 1455 1451 1447 1444 1441 1437 1436 1434 1434 1431 1428 1429 1429 1431 1433 1438 1443 1444 1447 1455 1464 1468 1472 1478 1480 1483 1485 1488 1490 1493
Wind_Speed
4 5 5 3 5 5 4 4 3 6 6 5 2 4 5 3 6 3 5 8 11 16 17 20 18 14 11 11 9 8 7 8 7 6 7 6 5 5 3 4 5 6 6 7 8 6 7 9 10
3 5 4 4 5 6 5 4 4 4 7 3 3 4 6 7 6 3 4 8 13 17 16 18 18 16 11 9 9 9 9 10 9 6 6 7 6 4 2 2 3 4 6 6 6 6 6 9 11
4 3 5 4 5 6 4 3 5 2 4 4 3 4 4 5 6 3 2 4 12 16 15 16 17 17 15 10 9 9 10 11 9 7 7 6 6 5 4 2 1 3 4 4 5 5 5 8 10
3 3 5 5 9 3 6 3 4 6 2 3 4 5 3 5 3 3 4 6 13 15 15 19 17 15 15 12 11 10 9 10 9 8 7 5 5 5 5 4 2 1 2 3 3 4 4 6 8
2 4 6 6 5 3 2 3 4 5 4 4 3 2 1 5 4 4 6 9 10 12 12 15 18 16 15 14 14 13 12 11 10 9 9 8 7 5 5 5 3 2 1 1 2 3 3 4 6
4 4 6 6 2 0 2 2 4 5 4 2 6 4 5 5 2 2 4 7 8 11 12 12 18 18 15 12 14 13 12 11 11 9 9 9 9 7 7 6 6 4 3 2 2 2 2 2 4
5 5 8 6 7 6 0 4 4 6 5 0 5 7 4 4 1 2 3 5 6 9 11 11 13 17 17 16 17 15 14 14 13 12 11 12 11 9 7 8 7 7 4 3 3 2 1 1 2
4 3 7 4 5 4 2 4 3 6 5 6 4 3 1 5 3 2 5 7 8 11 12 12 11 13 15 16 17 16 16 15 15 14 13 13 13 11 9 10 9 8 7 5 4 4 3 2 0
2 4 7 4 5 4 3 5 2 6 10 4 7 8 7 7 6 3 6 8 9 11 13 14 14 13 12 11 12 14 14 15 14 14 13 13 12 10 10 9 11 10 9 7 5 5 4 3 2
5 5 6 5 3 5 5 7 10 10 9 8 12 11 7 10 11 10 10 10 12 12 13 14 15 15 15 13 13 14 12 13 13 12 10 12 9 14 13 12 12 12 11 10 8 7 5 3 1
3 6 6 4 5 6 9 10 11 10 11 9 10 13 15 16 15 15 15 15 15 14 14 15 16 15 15 14 14 12 12 12 12 11 11 11 10 13 13 15 13 14 14 11 11 9 5 4 5
7 7 9 9 5 9 12 15 15 15 16 12 11 13 15 16 17 17 18 16 17 17 17 16 17 17 17 15 16 17 15 17 14 16 15 14 16 14 13 15 11 14 14 12 12 11 8 7 6
11 8 7 9 11 13 14 18 17 19 18 11 8 8 9 10 11 12 16 17 15 17 17 17 18 18 18 18 15 13 12 12 13 19 19 16 13 14 15 13 11 17 17 16 17 14 11 10 6
8 11 16 17 17 16 15 17 10 8 5 7 9 10 11 7 9 11 10 13 17 16 18 17 20 20 19 20 20 18 17 13 13 16 14 12 14 16 14 14 16 20 14 15 15 14 11 9 7
9 13 14 18 12 5 4 13 15 14 8 10 12 14 12 7 11 11 8 9 11 14 15 22 23 21 22 24 23 23 20 16 14 14 14 16 16 15 15 16 21 17 17 16 12 10 10 11 6
14 13 12 8 4 5 5 15 7 5 12 12 16 18 16 10 10 8 11 11 10 12 15 17 16 21 25 26 25 25 19 19 16 14 13 14 16 15 17 21 20 17 18 15 13 10 8 5 5
13 11 12 12 1 7 10 14 7 10 17 22 19 13 9 9 7 10 11 13 13 12 13 16 18 22 27 31 30 24 24 22 20 16 14 13 16 15 18 17 16 13 8 11 9 6 6 6 5
16 18 19 18 12 11 17 22 19 23 20 19 16 7 6 6 7 9 11 12 13 14 14 16 18 19 23 32 32 30 27 29 22 19 17 15 14 15 14 11 8 8 10 10 11 10 8 6 5
17 19 22 20 16 18 19 22 17 19 19 18 14 5 4 4 6 9 12 13 14 13 15 15 16 17 18 28 30 31 31 30 26 23 17 16 15 15 14 11 11 10 10 10 9 8 7 7 7
17 19 21 19 14 7 16 19 20 21 18 1 1 2 4 7 8 10 13 15 17 19 19 17 18 18 23 25 30 32 32 29 28 24 22 20 18 19 17 14 15 13 12 11 10 8 9 8 8
15 17 19 20 19 19 21 25 21 8 9 10 7 2 5 9 11 13 16 17 18 20 23 21 20 18 21 26 28 29 30 27 30 28 26 21 19 19 18 16 14 14 13 11 10 10 8 8 10
19 16 18 16 16 17 17 19 16 8 14 10 7 4 6 8 9 13 16 19 19 21 23 24 25 17 15 25 25 30 31 33 33 31 29 26 21 21 21 18 16 15 17 12 10 9 9 8 9
20 13 14 17 19 20 25 15 17 19 11 15 8 6 8 10 13 15 16 18 19 20 22 24 26 14 5 15 24 27 30 29 28 27 25 26 25 22 23 19 17 16 13 11 9 9 8 9 8
15 17 20 21 18 17 23 21 20 20 7 13 9 7 8 12 15 16 17 19 20 22 21 24 25 16 8 3 17 25 26 30 27 25 27 30 29 27 24 22 19 15 12 12 12 9 9 8 7
14 14 13 15 14 18 21 16 13 14 12 10 7 6 9 14 16 20 21 22 22 24 26 21 22 23 12 6 10 19 24 24 27 29 29 28 31 30 27 24 20 19 15 12 10 9 8 9 9
16 17 13 21 17 17 20 8 1 12 13 10 7 9 12 15 17 20 21 22 21 21 23 23 21 21 24 9 8 11 19 20 21 26 28 26 22 25 26 23 17 14 14 12 11 9 11 9 8
14 16 13 17 20 17 17 17 6 9 8 7 7 11 15 18 20 22 23 22 23 21 21 24 20 22 19 22 7 8 15 16 20 26 27 26 22 19 25 20 19 15 15 12 11 11 10 8 8
11 11 9 8 6 14 13 19 2 6 3 5 11 15 17 19 21 23 23 22 23 23 19 20 21 18 23 26 12 4 9 13 19 22 26 28 33 32 12 15 17 17 13 12 13 10 8 8 7
9 10 12 10 10 5 5 1 8 5 5 11 13 17 19 19 20 21 23 23 23 23 21 18 19 14 14 23 19 6 6 10 18 22 22 18 25 19 9 12 13 15 16 14 11 11 10 9 8
8 11 8 4 5 5 4 8 7 3 11 16 17 20 21 21 21 23 22 22 23 22 20 17 17 13 6 9 9 5 8 11 11 13 14 12 17 24 22 14 16 16 15 13 9 14 10 10 12
Wind_Direction
354 331 301 324 254 240 227 169 27 158 170 104 121 306 20 5 9 18 292 183 162 169 177 180 180 194 195 196 198 191 181 165 183 169 161 180 168 157 126 75 61 66 83 84 80 81 68 47 41
0 326 313 284 259 246 131 98 194 68 32 323 282 247 224 89 50 67 45 180 165 167 179 179 185 192 196 192 193 191 181 182 188 185 178 183 187 188 186 118 80 73 87 93 92 81 65 43 40
4 320 283 271 272 294 12 186 108 334 306 262 271 290 352 55 45 70 120 176 166 170 179 186 188 190 197 201 200 198 187 193 202 205 188 193 197 194 206 186 118 84 94 107 90 85 63 49 46
331 259 243 261 280 42 335 105 359 296 183 220 300 257 144 45 28 42 115 149 160 172 178 206 192 195 200 207 197 193 203 202 211 214 213 195 204 210 217 213 192 133 121 118 102 97 69 56 50
309 248 257 242 274 297 251 356 300 282 302 273 324 324 77 55 60 92 127 148 163 173 182 217 197 197 200 207 202 201 200 208 218 215 212 197 223 217 220 232 219 215 189 152 137 115 84 55 51
261 263 253 263 53 291 260 302 290 271 288 275 265 309 72 61 64 108 144 162 172 183 185 206 202 206 206 200 214 210 201 202 215 219 221 208 207 229 225 233 231 237 240 216 179 150 114 75 52
279 280 283 295 280 272 244 326 289 333 281 60 311 273 96 82 21 162 168 182 191 195 191 200 208 205 207 203 213 216 220 223 223 223 222 215 223 232 228 229 235 237 240 244 215 197 198 138 64
290 265 266 249 299 276 56 305 325 324 354 326 298 298 2 26 347 210 200 200 199 198 200 203 208 209 211 218 218 222 227 229 231 229 227 224 222 234 230 231 234 233 237 235 230 219 211 192 118
278 262 275 288 288 18 336 313 163 321 285 289 297 294 326 324 322 281 243 227 215 207 205 203 203 209 209 216 236 222 219 224 226 226 225 224 222 249 243 238 238 237 236 235 228 219 215 212 214
254 264 311 22 351 295 304 289 305 296 282 272 275 267 275 298 292 278 257 251 238 230 218 210 206 202 201 205 225 241 226 231 230 228 234 226 218 232 243 231 235 239 236 234 229 226 213 130 285
192 260 22 282 292 280 286 284 291 279 277 280 296 296 290 285 279 272 269 263 247 242 234 221 212 209 208 202 208 222 207 224 227 226 222 228 208 237 253 244 237 233 230 234 240 228 212 204 212
276 250 296 297 302 293 294 301 284 279 279 286 290 284 294 293 283 275 270 267 263 237 229 228 216 211 208 209 217 217 214 216 207 231 217 219 221 220 232 240 216 230 230 218 229 211 201 206 206
240 282 290 268 261 265 272 268 272 276 277 278 272 276 289 309 308 289 269 264 270 256 223 229 228 218 215 213 222 214 227 231 224 241 230 212 223 225 234 249 223 235 232 222 220 220 200 220 193
329 281 283 275 273 271 269 276 273 271 226 256 271 276 278 306 308 310 294 269 258 258 247 227 229 229 225 219 222 226 205 222 224 233 243 234 232 226 226 243 228 235 230 225 224 223 220 188 188
278 285 284 268 277 293 282 259 233 256 218 266 282 284 285 300 306 299 303 298 282 262 259 235 237 224 234 234 223 232 221 215 222 224 224 225 232 229 231 236 242 235 228 230 231 227 194 184 188
260 273 270 126 167 174 226 280 291 192 239 267 293 287 285 311 302 312 314 309 301 280 268 259 248 238 235 238 235 226 218 226 218 221 225 229 228 228 231 233 240 246 242 217 200 192 178 146 219
233 267 275 273 87 260 239 288 297 279 270 278 283 284 302 292 298 319 325 321 313 300 283 268 256 250 241 235 234 232 221 219 221 217 219 221 224 231 237 240 250 245 211 165 174 156 179 179 208
310 302 295 290 286 222 250 271 284 282 273 273 269 266 272 306 329 336 340 338 326 317 308 291 277 260 244 234 233 229 224 219 216 219 215 215 220 221 227 219 222 220 195 191 166 173 170 174 196
296 289 286 286 290 280 279 282 276 279 266 264 260 251 281 334 344 350 354 353 344 335 323 309 294 260 247 233 228 231 223 221 215 218 212 211 214 209 192 196 199 192 229 193 187 188 181 174 197
278 279 280 286 287 283 278 280 290 284 280 267 147 268 354 1 0 1 1 1 0 353 340 324 308 286 228 234 232 227 226 218 218 209 205 208 201 202 186 192 189 185 219 200 203 210 191 217 197
266 272 283 286 298 285 282 275 274 120 135 133 132 85 21 17 4 6 1 358 358 358 353 340 318 303 268 219 236 229 228 219 212 211 203 196 194 199 186 188 192 181 210 218 214 226 233 235 221
277 284 287 285 285 281 295 284 276 216 191 160 148 97 46 20 12 15 6 359 355 354 352 350 331 292 288 237 227 229 225 218 218 211 204 204 193 197 197 189 189 195 208 216 231 221 225 231 246
280 305 283 281 282 285 273 274 267 258 204 160 133 78 49 25 15 9 3 358 354 349 349 349 349 311 302 257 218 232 229 220 211 212 200 198 192 200 201 194 192 199 218 203 222 214 221 229 219
290 290 273 272 268 262 269 267 269 262 347 119 122 76 29 14 360 356 356 355 352 347 341 342 349 329 297 237 232 228 229 228 225 219 212 190 200 197 199 195 195 192 195 198 206 208 203 205 198
241 278 281 274 261 261 262 274 293 83 78 96 87 50 17 5 355 346 347 351 346 347 346 339 345 356 325 251 216 229 228 227 235 221 214 207 201 201 200 194 191 194 193 202 207 196 201 192 217
302 287 273 280 284 290 300 273 293 106 108 103 73 20 1 351 346 339 339 337 337 337 338 338 339 341 357 301 237 228 232 228 229 217 215 197 189 196 194 189 188 186 186 199 186 193 189 206 211
293 284 279 288 279 280 271 259 114 136 118 69 26 357 348 340 334 330 329 328 326 325 330 334 332 334 348 357 250 228 234 225 231 219 211 197 176 292 175 176 175 177 188 191 184 188 196 206 222
240 310 271 247 264 255 247 252 46 165 103 12 356 347 344 335 327 322 319 318 318 316 318 326 330 317 337 347 334 257 267 244 231 221 207 212 212 314 145 170 177 184 192 174 187 181 193 197 181
244 250 245 273 262 281 288 221 109 100 18 352 340 343 342 338 329 322 316 313 309 308 309 319 326 322 331 331 352 294 280 219 206 203 208 212 200 206 198 190 188 176 183 185 176 174 187 184 197
269 285 285 276 260 247 281 266 127 52 4 345 343 344 342 336 330 326 322 312 305 305 305 310 320 315 303 304 321 125 168 205 179 177 179 195 200 191 213 217 190 181 188 179 174 200 204 190 176